Regional Weather Roundup
Issued by NWS

Home | Current Version | Previous Version | Text Only | Print | Product List | Glossary On
Versions: 1 2 3 4 5 6 7 8 9 10 11 12 13 14 15 16 17 18 19 20 21 22 23 24 25 26 27 28 29 30 31 32 33 34 35 36 37 38 39 40 41 42 43 44 45 46 47 48 49 50
000
ASUS45 KREV 240510
RWRNV
NEVADA REGIONAL WEATHER ROUNDUP
NATIONAL WEATHER SERVICE RENO NV
1000 PM PDT WED AUG 23 2017

NOTE: "FAIR" INDICATES FEW OR NO CLOUDS BELOW 12,000 FEET WITH NO
SIGNIFICANT WEATHER AND/OR OBSTRUCTIONS TO VISIBILITY.

NVZ001-003-004-240600-
WESTERN NEVADA

CITY           SKY/WX    TMP DP  RH WIND       PRES   REMARKS
RENO           CLEAR     78  42  27 NW8       30.07R
CARSON CITY    FAIR      75  39  27 CALM      30.10R
MINDEN         FAIR      72  45  37 SW7       30.10R
FALLON         PTCLDY    72  38  29 NW3       30.00R
LOVELOCK       CLEAR     70  37  29 NE8       30.00R
HAWTHORNE      CLEAR     77  39  25 NW8       30.01S
$$

NVZ002-CAZ072-073-240600-
NORTHERN AND CENTRAL SIERRA

CITY           SKY/WX    TMP DP  RH WIND       PRES   REMARKS
S. LAKE TAHOE  CLEAR     58  47  66 CALM      30.22R
TRUCKEE        CLEAR     52  43  71 SE5       30.21S
SQUAW VLY 8000   N/A     57  37  47 W3          N/A
SUSANVILLE     CLEAR     72  37  28 NW5       30.07R
BLUE CANYON    CLEAR     70  42  36 CALM      30.18R
MAMMOTH LAKES  FAIR      57  41  55 CALM      30.25S
BRIDGEPORT     FAIR      62  42  47 VRB5      30.22R
$$

NVZ030-031-036-240600-
NORTHERN NEVADA

CITY           SKY/WX    TMP DP  RH WIND       PRES   REMARKS
ELKO           CLEAR     70  40  33 NE7       30.10R
WINNEMUCCA     PTCLDY    65  41  41 NW3       30.04S
WENDOVER       MOCLDY    71  54  54 S10       30.08R
$$

NVZ035-037-240600-
CENTRAL NEVADA

CITY           SKY/WX    TMP DP  RH WIND       PRES   REMARKS
ELY            PTCLDY    64  39  39 S8        30.17S
EUREKA           N/A     77  32  19 E10G23    30.13F
$$

NVZ013-014-240600-
SOUTH CENTRAL NEVADA

CITY           SKY/WX    TMP DP  RH WIND       PRES   REMARKS
TONOPAH        CLEAR     73  26  17 CALM      30.10R
$$

NVZ017-020-022-240600-
SOUTHERN NEVADA

CITY           SKY/WX    TMP DP  RH WIND       PRES   REMARKS
LAS VEGAS      MOCLDY    85  52  32 S6        29.85S
N. LAS VEGAS   PTCLDY    87  50  27 SW5       29.84S
NELLIS AFB     PTCLDY    87  49  26 CALM      29.83R
HENDERSON      PTCLDY    75  61  61 S13       29.90R
MERCURY        PTCLDY    76  49  38 W5        29.93S
$$



USA.gov is the U.S. government's official web portal to all federal, state and local government web resources and services.